Weather History for Staverton, United Kingdom

Change the Weather History Date:

Tuesday, February 4, 2014

  Actual Average Record
Temperature  
Mean Temperature 42 °F -  
Max Temperature 46 °F 46 °F 62 °F (2004)
Min Temperature 39 °F 39 °F 21 °F (2012)
Degree Days  
Heating Degree Days 22    
Moisture  
Dew Point 36 °F    
Average Humidity 72    
Maximum Humidity 81    
Minimum Humidity 66    
Precipitation  
Precipitation 0.00 in - - ()
Sea Level Pressure  
Sea Level Pressure 29.37 in    
Wind  
Wind Speed 12 mph ()    
Max Wind Speed 18 mph    
Max Gust Speed 33 mph    
Visibility 6.2 miles    
Events Rain    
Averages and records for this station are not official NWS values.
T = Trace of Precipitation, MM = Missing Value Source: Averaged Metar Reports

Daily Weather History Graph

Daily Weather History Graph

Search for Another Location

Airport:

Trip Planner

Search our weather history database for the weather conditions in past years. The results will help you decide how hot, cold, wet, or windy it might be!

Date:

Astronomy

Feb. 04, 2014 Rise Set
Actual Time 7:43 AM GMT 5:02 PM GMT
Civil Twilight 7:07 AM GMT 5:38 PM GMT
Nautical Twilight 6:27 AM GMT 6:18 PM GMT
Astronomical Twilight 5:47 AM GMT 6:57 PM GMT
Moon 9:29 AM GMT (2/4) 11:28 PM GMT (2/4)
Length of Visible Light 10h 31m
Length of Day
9h 18m
Waxing Crescent, 27% of the Moon is Illuminated
Feb 4
Waxing Crescent
Feb 6
First Quarter
Feb 14
Full
Feb 22
Last Quarter
Mar 1
New

Hourly Weather History & Observations

Time (GMT) Temp. Windchill Dew Point Humidity Pressure Visibility Wind Dir Wind Speed Gust Speed Precip Events Conditions
6:50 AM 41.0 °F 33.9 °F 33.8 °F 76% 29.42 in 6.2 mi South 12.7 mph - N/A   Partly Cloudy
7:20 AM 39.2 °F 32.0 °F 33.8 °F 81% 29.44 in 6.2 mi SSE 11.5 mph - N/A   Partly Cloudy
7:50 AM 41.0 °F 34.3 °F 33.8 °F 76% 29.44 in 6.2 mi SSE 11.5 mph - N/A   Partly Cloudy
8:20 AM 39.2 °F 33.6 °F 33.8 °F 81% 29.44 in 6.2 mi SSE 8.1 mph - N/A   Partly Cloudy
8:50 AM 41.0 °F 35.8 °F 33.8 °F 76% 29.44 in 6.2 mi SE 8.1 mph - N/A   Partly Cloudy
9:20 AM 41.0 °F 35.2 °F 33.8 °F 76% 29.44 in 6.2 mi SSE 9.2 mph - N/A   Partly Cloudy
9:50 AM 44.6 °F 38.8 °F 35.6 °F 71% 29.44 in 6.2 mi SSE 11.5 mph - N/A   Partly Cloudy
10:20 AM 44.6 °F 38.8 °F 35.6 °F 71% 29.44 in 6.2 mi SSE 11.5 mph - N/A   Scattered Clouds
10:50 AM 46.4 °F 40.1 °F 35.6 °F 66% 29.44 in 6.2 mi South 15.0 mph - N/A   Partly Cloudy
11:20 AM 46.4 °F 40.1 °F 37.4 °F 71% 29.44 in 6.2 mi SSE 15.0 mph - N/A   Partly Cloudy
11:50 AM 46.4 °F 40.1 °F 37.4 °F 71% 29.44 in 6.2 mi SSE 15.0 mph 26.5 mph N/A   Partly Cloudy
12:20 PM 46.4 °F 39.2 °F 37.4 °F 71% 29.42 in 6.2 mi South 18.4 mph - N/A   Partly Cloudy
12:50 PM 46.4 °F 40.1 °F 35.6 °F 66% 29.42 in 6.2 mi SSE 15.0 mph - N/A   Scattered Clouds
1:20 PM 46.4 °F 39.5 °F 37.4 °F 71% 29.39 in 6.2 mi SSE 17.3 mph - N/A Rain Light Rain Showers
1:50 PM 46.4 °F 41.5 °F 37.4 °F 71% 29.39 in 6.2 mi SSE 10.4 mph - N/A   Scattered Clouds
2:20 PM 46.4 °F 40.1 °F 37.4 °F 71% 29.36 in 6.2 mi SSE 15.0 mph 28.8 mph N/A   Scattered Clouds
2:50 PM 46.4 °F 40.4 °F 37.4 °F 71% 29.36 in 6.2 mi SSE 13.8 mph - N/A   Scattered Clouds
3:20 PM 46.4 °F 39.5 °F 37.4 °F 71% 29.33 in 6.2 mi SSE 17.3 mph 28.8 mph N/A   Scattered Clouds
3:50 PM 46.4 °F 39.8 °F 37.4 °F 71% 29.30 in 6.2 mi SSE 16.1 mph 28.8 mph N/A   Partly Cloudy
4:20 PM 46.4 °F 39.2 °F 35.6 °F 66% 29.30 in 6.2 mi SE 18.4 mph - N/A   Partly Cloudy
4:50 PM 44.6 °F 37.4 °F 35.6 °F 71% 29.27 in 6.2 mi SE 16.1 mph 28.8 mph N/A   Partly Cloudy
5:20 PM 44.6 °F 37.4 °F 35.6 °F 71% 29.24 in 6.2 mi SE 16.1 mph 27.6 mph N/A   Partly Cloudy
5:50 PM 44.6 °F 37.4 °F 35.6 °F 71% 29.21 in 6.2 mi SE 16.1 mph - N/A   Mostly Cloudy
6:20 PM 46.4 °F 39.2 °F 37.4 °F 71% 29.18 in 6.2 mi SE 18.4 mph - N/A   Mostly Cloudy
6:50 PM 46.4 °F 39.2 °F 37.4 °F 71% 29.15 in 6.2 mi ESE 18.4 mph 33.4 mph N/A   Mostly Cloudy